This is the latest recevied weather packets stored in our database for station/object K3RUP-1. If no packets are shown the sender has not sent any weather packets the latest 10 day(s).
| Time | Temp. | Humidity | Pressure | Rain* | Wind** | Luminosity | Snow |
|---|---|---|---|---|---|---|---|
| 1777833551 | 16.67° C | 37% | 1014.8 hPa | 0 mm | - | 641 W/m² | - |
| 1777833247 | 17.22° C | 35% | 1015 hPa | 0 mm | - | 650 W/m² | - |
| 1777832944 | 15.56° C | 37% | 1015.1 hPa | 0 mm | - | 727 W/m² | - |
| 1777832643 | 15.56° C | 38% | 1014.9 hPa | 0 mm | - | 716 W/m² | - |
| 1777832340 | 15.56° C | 34% | 1014.8 hPa | 0 mm | - | 694 W/m² | - |
| 1777832037 | 15.56° C | 36% | 1015.1 hPa | 0 mm | - | 606 W/m² | - |
| 1777831733 | 15.56° C | 37% | 1015 hPa | 0 mm | - | 192 W/m² | - |
| 1777831431 | 16.11° C | 36% | 1014.9 hPa | 0 mm | - | 744 W/m² | - |
| 1777831127 | 15.56° C | 39% | 1015 hPa | 0 mm | - | 674 W/m² | - |
| 1777830826 | 15.56° C | 36% | 1015.2 hPa | 0 mm | - | 561 W/m² | - |
| 1777830521 | 15.56° C | 37% | 1015.2 hPa | 0 mm | - | 726 W/m² | - |
| 1777830219 | 15° C | 38% | 1015.1 hPa | 0 mm | - | 793 W/m² | - |
| 1777829914 | 15.56° C | 36% | 1015.3 hPa | 0 mm | - | 747 W/m² | - |
| 1777829611 | 15.56° C | 35% | 1015.2 hPa | 0 mm | - | 664 W/m² | - |
| 1777829308 | 15° C | 35% | 1015.4 hPa | 0 mm | - | 733 W/m² | - |
| 1777829006 | 15° C | 35% | 1015.2 hPa | 0 mm | - | 720 W/m² | - |
| 1777828701 | 15° C | 36% | 1015.5 hPa | 0 mm | - | 717 W/m² | - |
| 1777828398 | 14.44° C | 40% | 1015.4 hPa | 0 mm | - | 787 W/m² | - |
| 1777828095 | 14.44° C | 38% | 1015.3 hPa | 0 mm | - | 734 W/m² | - |
| 1777827792 | 15° C | 37% | 1015.4 hPa | 0 mm | - | 703 W/m² | - |
| 1777827489 | 14.44° C | 38% | 1015.4 hPa | 0 mm | - | 610 W/m² | - |
| 1777827187 | 14.44° C | 39% | 1015.4 hPa | 0 mm | - | 643 W/m² | - |
| 1777826883 | 14.44° C | 38% | 1015.2 hPa | 0 mm | - | 704 W/m² | - |
| 1777826581 | 15° C | 39% | 1015.5 hPa | 0 mm | - | 276 W/m² | - |
| 1777826276 | 14.44° C | 36% | 1015.4 hPa | 0 mm | - | 643 W/m² | - |
* Rain latest hour (hover to see other rain measurements)
** Current wind speed in m/s (hover to see current wind gust speed)